CW9861 Weather Reports


Display with metric or nautical units.
time (UTC)temp
F
wind
direction
speed
MPH
gust
MPH
rain 1hr
in
rain 24hr
in
rain mn
in
humidity
%
barometer
mb
20260902194458 89 230 2.0 7.0 0.00 0.00 0.00 70 1011.2
20260902193957 90 196 2.0 5.0 0.00 0.00 0.00 72 1011.3
20260902193458 90 295 2.0 9.0 0.00 0.00 0.00 72 1011.4
20260902192958 90 230 2.0 9.0 0.00 0.00 0.00 70 1011.6
20260902192458 90 297 2.0 6.0 0.00 0.00 0.00 70 1011.6
20260902191958 89 320 1.0 7.0 0.00 0.00 0.00 74 1011.7
20260902191459 89 296 1.0 7.0 0.00 0.00 0.00 73 1011.7
20260902190958 89 235 1.0 5.0 0.00 0.00 0.00 73 1011.8
20260902190458 90 216 2.0 5.0 0.00 0.00 0.00 72 1012.0
20260902185959 89 309 1.0 4.0 0.00 0.00 0.00 73 1012.1
20260902185458 88 236 2.0 4.0 0.00 0.00 0.00 75 1012.2
20260902184958 88 339 2.0 4.0 0.00 0.00 0.00 74 1012.2
20260902184458 87 276 1.0 6.0 0.00 0.00 0.00 74 1012.1
20260902183958 88 284 2.0 6.0 0.00 0.00 0.00 73 1011.9
20260902183458 89 241 1.0 9.0 0.00 0.00 0.00 74 1011.8
20260902182958 89 11 3.0 9.0 0.00 0.00 0.00 75 1011.9
20260902182458 89 172 2.0 5.0 0.00 0.00 0.00 75 1011.8
20260902181958 89 191 3.0 9.0 0.00 0.00 0.00 73 1012.0
20260902181458 89 230 2.0 9.0 0.00 0.00 0.00 75 1012.1
20260902180959 89 195 2.0 5.0 0.00 0.00 0.00 73 1012.1
20260902180458 88 231 2.0 4.0 0.00 0.00 0.00 74 1012.2
20260902175958 87 163 2.0 10.0 0.00 0.00 0.00 77 1012.4
20260902175458 87 324 4.0 10.0 0.00 0.00 0.00 76 1012.4
20260902174958 88 215 4.0 7.0 0.00 0.00 0.00 75 1012.3
20260902174459 87 197 3.0 7.0 0.00 0.00 0.00 79 1012.5
20260902173959 87 208 3.0 8.0 0.00 0.00 0.00 77 1012.5
20260902173458 87 194 2.0 8.0 0.00 0.00 0.00 78 1012.5
20260902172958 86 203 2.0 7.0 0.00 0.00 0.00 80 1012.7
20260902172458 86 251 1.0 4.0 0.00 0.00 0.00 81 1012.8
20260902171958 85 174 0.0 6.0 0.00 0.00 0.00 83 1012.8
20260902171457 85 242 1.0 8.0 0.00 0.00 0.00 82 1012.8
20260902170958 85 113 2.0 8.0 0.00 0.00 0.00 81 1012.9
20260902170458 85 236 2.0 5.0 0.00 0.00 0.00 80 1012.9
20260902165958 86 236 2.0 5.0 0.00 0.00 0.00 82 1012.9
20260902165457 85 17 0.0 3.0 0.00 0.00 0.00 82 1013.0
20260902164958 84 155 1.0 3.0 0.00 0.00 0.00 82 1013.1
20260902164457 85 190 1.0 5.0 0.00 0.00 0.00 81 1013.1
20260902163958 85 234 2.0 4.0 0.00 0.00 0.00 80 1013.1
20260902163458 84 207 0.0 3.0 0.00 0.00 0.00 83 1013.0
20260902162958 84 214 1.0 2.0 0.00 0.00 0.00 81 1013.0
20260902162458 84 215 0.0 4.0 0.00 0.00 0.00 81 1013.0
20260902161957 84 240 1.0 5.0 0.00 0.00 0.00 80 1012.9
20260902161458 84 170 2.0 5.0 0.00 0.00 0.00 80 1013.0
20260902160958 84 165 2.0 3.0 0.00 0.00 0.00 79 1013.0
20260902160458 85 120 2.0 3.0 0.00 0.00 0.00 78 1013.0
20260902155959 84 212 1.0 4.0 0.00 0.00 0.00 78 1012.8
20260902155500 84 259 0.0 5.0 0.00 0.00 0.00 81 1013.0
20260902154959 83 238 2.0 5.0 0.00 0.00 0.00 81 1013.1
20260902154459 83 176 1.0 5.0 0.00 0.00 0.00 83 1013.1
20260902153959 83 228 2.0 5.0 0.00 0.00 0.00 82 1013.2
20260902153459 82 181 2.0 4.0 0.00 0.00 0.00 82 1013.2
20260902152959 82 189 1.0 3.0 0.00 0.00 0.00 81 1013.3
20260902152459 81 47 0.0 1.0 0.00 0.00 0.00 84 1013.2
20260902151959 81 53 0.0 2.0 0.00 0.00 0.00 83 1013.4
20260902151459 81 203 0.0 2.0 0.00 0.00 0.00 81 1013.4
20260902150958 81 195 0.0 2.0 0.00 0.00 0.00 82 1013.3
20260902150459 81 298 0.0 2.0 0.00 0.00 0.00 81 1013.3
20260902150000 81 276 0.0 2.0 0.00 0.00 0.00 81 1013.5
20260902145458 81 280 1.0 2.0 0.00 0.00 0.00 81 1013.5
20260902144959 81 261 0.0 3.0 0.00 0.00 0.00 81 1013.4
20260902144459 81 356 1.0 4.0 0.00 0.00 0.00 83 1013.5
20260902143959 81 207 0.0 4.0 0.00 0.00 0.00 82 1013.5
20260902143458 81 276 1.0 4.0 0.00 0.00 0.00 81 1013.4
20260902142959 81 334 0.0 1.0 0.00 0.00 0.00 85 1013.4
20260902142459 80 241 0.0 2.0 0.00 0.00 0.00 85 1013.3
20260902142000 80 342 1.0 2.0 0.00 0.00 0.00 86 1013.3
20260902141459 79 333 0.0 2.0 0.00 0.00 0.00 86 1013.4
20260902140959 78 318 1.0 3.0 0.00 0.00 0.00 88 1013.4
20260902140500 78 241 0.0 4.0 0.00 0.00 0.00 88 1013.7
20260902135958 78 259 2.0 4.0 0.00 0.00 0.00 88 1013.7
20260902135458 77 276 2.0 8.0 0.00 0.00 0.00 88 1013.7
20260902134958 78 241 1.0 8.0 0.00 0.00 0.00 88 1013.8
20260902134457 78 276 2.0 6.0 0.00 0.00 0.00 88 1013.7
20260902133958 78 317 1.0 9.0 0.00 0.00 0.00 88 1013.6
20260902133458 78 336 3.0 16.0 0.00 0.00 0.00 88 1013.4
20260902132958 79 349 4.0 7.0 0.00 0.00 0.00 89 1013.6
20260902125000 74 222 1.0 2.0 0.00 0.00 0.00 92 1013.0
20260902124459 74 198 0.0 4.0 0.00 0.00 0.00 92 1012.9
20260902123959 74 202 1.0 5.0 0.00 0.00 0.00 91 1012.9
20260902123459 73 238 1.0 4.0 0.00 0.00 0.00 91 1013.1
20260902123000 73 206 0.0 2.0 0.00 0.00 0.00 92 1013.1
20260902122459 73 228 0.0 2.0 0.00 0.00 0.00 91 1013.2
20260902114459 72 284 0.0 0.0 0.00 0.00 0.00 91 1013.4
20260902113959 72 284 0.0 0.0 0.00 0.00 0.00 91 1013.4
20260902113459 72 284 0.0 0.0 0.00 0.00 0.00 91 1013.4
20260902112959 72 284 0.0 0.0 0.00 0.00 0.00 91 1013.3
20260902112459 72 284 0.0 0.0 0.00 0.00 0.00 91 1013.4
20260902111959 72 284 0.0 0.0 0.00 0.00 0.00 91 1013.4
20260902104458 73 284 0.0 0.0 0.00 0.00 0.00 91 1013.3
20260902103958 73 284 0.0 0.0 0.00 0.00 0.00 91 1013.2
20260902103458 73 284 0.0 0.0 0.00 0.00 0.00 91 1013.2
20260902102957 73 284 0.0 0.0 0.00 0.00 0.00 91 1013.1
20260902102457 73 284 0.0 0.0 0.00 0.00 0.00 91 1013.2
20260902101957 73 284 0.0 0.0 0.00 0.00 0.00 91 1013.2
20260902101457 73 284 0.0 0.0 0.00 0.00 0.00 91 1013.2
20260902100958 73 284 0.0 0.0 0.00 0.00 0.00 91 1013.4
20260902100457 73 284 0.0 0.0 0.00 0.00 0.00 91 1013.4
20260902100000 73 284 0.0 0.0 0.00 0.00 0.00 90 1013.4
20260902095459 74 284 0.0 0.0 0.00 0.00 0.00 90 1013.4
20260902094958 74 284 0.0 0.0 0.00 0.00 0.00 91 1013.3
20260902094458 74 284 0.0 0.0 0.00 0.00 0.00 90 1013.3
20260902093958 74 284 0.0 0.0 0.00 0.00 0.00 90 1013.3
20260902093458 74 284 0.0 1.0 0.00 0.00 0.00 90 1013.3
20260902093000 74 284 0.0 1.0 0.00 0.00 0.00 90 1013.3
20260902092459 74 284 0.0 1.0 0.00 0.00 0.00 91 1013.3
20260902091959 74 284 0.0 0.0 0.00 0.00 0.00 91 1013.2
20260902091459 75 284 0.0 0.0 0.00 0.00 0.00 91 1013.2
20260902090958 75 284 0.0 0.0 0.00 0.00 0.00 91 1013.1
20260902090459 75 284 0.0 0.0 0.00 0.00 0.00 91 1013.1
20260902085958 75 284 0.0 0.0 0.00 0.00 0.00 91 1013.0
20260902085458 75 284 0.0 0.0 0.00 0.00 0.00 91 1013.1
20260902084957 75 284 0.0 1.0 0.00 0.00 0.00 91 1013.1
20260902084458 75 284 0.0 1.0 0.00 0.00 0.00 91 1013.0
20260902083957 75 294 0.0 3.0 0.00 0.00 0.00 91 1012.9
20260902083457 75 335 0.0 3.0 0.00 0.00 0.00 91 1012.7
20260902082957 75 328 1.0 2.0 0.00 0.00 0.00 91 1012.5
20260902082457 75 289 0.0 2.0 0.00 0.00 0.00 91 1012.4
20260902081958 75 257 1.0 2.0 0.00 0.00 0.00 91 1012.4
20260902081458 75 213 1.0 2.0 0.00 0.00 0.00 91 1012.3
20260902080957 74 318 1.0 2.0 0.00 0.00 0.00 91 1012.3
20260902080459 74 297 1.0 3.0 0.00 0.00 0.00 91 1012.4
20260902072458 73 229 0.0 1.0 0.00 0.00 0.00 90 1012.5
20260902071958 73 319 0.0 1.0 0.00 0.00 0.00 90 1012.6
20260902071457 73 318 0.0 1.0 0.00 0.00 0.00 90 1012.7
20260902070957 73 319 0.0 0.0 0.00 0.00 0.00 90 1012.6
20260902070457 72 318 0.0 0.0 0.00 0.00 0.00 90 1012.6
20260902065958 72 318 0.0 0.0 0.00 0.00 0.00 90 1012.5
20260902065457 72 318 0.0 0.0 0.00 0.00 0.00 90 1012.6
20260902064957 72 318 0.0 0.0 0.00 0.00 0.00 90 1012.7
20260902064458 72 318 0.0 0.0 0.00 0.00 0.00 89 1012.7
20260902063957 72 318 0.0 0.0 0.00 0.00 0.00 89 1012.8
20260902063457 73 318 0.0 0.0 0.00 0.00 0.00 89 1012.7
20260902062957 73 318 0.0 0.0 0.00 0.00 0.00 89 1012.7
20260902062457 73 318 0.0 0.0 0.00 0.00 0.00 89 1012.8
20260902061958 73 318 0.0 0.0 0.00 0.00 0.00 89 1012.8
20260902061457 73 318 0.0 0.0 0.00 0.00 0.00 89 1012.7
20260902060958 73 318 0.0 0.0 0.00 0.00 0.00 89 1012.8
20260902060458 73 318 0.0 0.0 0.00 0.00 0.00 89 1012.5
20260902055958 73 318 0.0 0.0 0.00 0.00 0.00 89 1012.5
20260902055458 73 318 0.0 0.0 0.00 0.00 0.00 89 1012.4
20260902054958 73 318 0.0 0.0 0.00 0.00 0.00 89 1012.5
20260902054457 73 318 0.0 0.0 0.00 0.00 0.00 89 1012.5
20260902053957 73 318 0.0 0.0 0.00 0.00 0.00 89 1012.4
20260902053457 73 319 0.0 0.0 0.00 0.00 0.00 89 1012.4
20260902052957 73 318 0.0 0.0 0.00 0.00 0.00 89 1012.3
20260902052457 73 318 0.0 0.0 0.00 0.00 0.00 89 1012.3
20260902051957 73 318 0.0 0.0 0.00 0.00 0.00 89 1012.6
20260902051457 73 319 0.0 0.0 0.00 0.00 0.00 89 1012.8
20260902050957 73 318 0.0 0.0 0.00 0.00 0.00 89 1012.9
20260902050457 73 318 0.0 0.0 0.00 0.00 0.00 89 1012.8
20260902050000 73 318 0.0 0.0 0.00 0.00 0.00 89 1012.8
20260902045500 73 318 0.0 0.0 0.00 0.00 0.00 89 1012.8
20260902044959 74 318 0.0 0.0 0.00 0.00 0.00 89 1012.8
20260902044500 74 319 0.0 0.0 0.00 0.00 0.00 89 1012.8
20260902043959 74 318 0.0 1.0 0.00 0.00 0.00 89 1012.6
20260902043459 74 318 0.0 1.0 0.00 0.00 0.00 89 1012.5
20260902042959 74 319 0.0 1.0 0.00 0.00 0.00 89 1012.6
20260902042459 74 318 0.0 1.0 0.00 0.00 0.00 89 1012.4
20260902042000 74 247 0.0 1.0 0.00 0.00 0.00 89 1012.5
20260902041500 74 228 0.0 0.0 0.00 0.00 0.00 89 1012.6
20260902041000 74 228 0.0 0.0 0.00 0.00 0.00 89 1012.7
20260902033458 75 228 0.0 0.0 0.00 0.00 0.00 89 1012.8
20260902032958 75 228 0.0 1.0 0.00 0.00 0.00 88 1012.8
20260902032458 75 228 0.0 1.0 0.00 0.00 0.00 88 1012.8
20260902031958 75 228 0.0 0.0 0.00 0.00 0.00 88 1012.8
20260902031458 75 228 0.0 0.0 0.00 0.00 0.00 88 1012.9
20260902030958 75 228 0.0 0.0 0.00 0.00 0.00 88 1013.1
20260902030458 75 228 0.0 0.0 0.00 0.00 0.00 88 1013.2
20260902022959 76 228 0.0 2.0 0.00 0.00 0.00 88 1012.9
20260902022458 76 239 0.0 0.0 0.00 0.00 0.00 87 1013.0
20260902021958 76 239 0.0 0.0 0.00 0.00 0.00 87 1012.9
20260902021459 76 239 0.0 0.0 0.00 0.00 0.00 87 1012.8
20260902020959 76 239 0.0 0.0 0.00 0.00 0.00 87 1013.1
20260902020459 76 239 0.0 0.0 0.00 0.00 0.00 87 1012.9
20260902020001 77 239 0.0 0.0 0.00 0.00 0.00 88 1012.8
20260902015459 77 239 0.0 1.0 0.00 0.00 0.00 87 1012.9
20260902014959 77 239 0.0 1.0 0.00 0.00 0.00 87 1012.9
20260902014459 77 239 0.0 1.0 0.00 0.00 0.00 85 1013.0
20260902013959 77 239 0.0 0.0 0.00 0.00 0.00 85 1012.9
20260902013500 77 239 0.0 0.0 0.00 0.00 0.00 85 1013.0
20260902012959 78 239 0.0 0.0 0.00 0.00 0.00 85 1013.0
20260902012459 78 239 0.0 0.0 0.00 0.00 0.00 84 1012.9
20260902011959 78 239 0.0 0.0 0.00 0.00 0.00 84 1012.9
20260902011459 78 238 0.0 0.0 0.00 0.00 0.00 84 1012.7
20260902010959 79 239 0.0 0.0 0.00 0.00 0.00 84 1012.5
20260902010459 79 238 0.0 0.0 0.00 0.00 0.00 84 1012.4
20260902010001 79 239 0.0 2.0 0.00 0.00 0.00 84 1012.3
20260902005459 79 238 0.0 2.0 0.00 0.00 0.00 84 1012.2
20260902004959 80 282 0.0 0.0 0.00 0.00 0.00 85 1012.2
20260902004459 80 282 0.0 1.0 0.00 0.00 0.00 84 1012.3
20260902003959 80 288 0.0 3.0 0.00 0.00 0.00 84 1012.3
20260902003459 80 215 0.0 1.0 0.00 0.00 0.00 84 1012.4
20260902002959 80 250 0.0 1.0 0.00 0.00 0.00 84 1012.4
20260902002459 81 197 0.0 4.0 0.00 0.00 0.00 84 1012.5
20260902001959 81 174 0.0 4.0 0.00 0.00 0.00 84 1012.5
20260902001459 81 213 0.0 1.0 0.00 0.00 0.00 84 1012.7
20260902000959 81 198 0.0 3.0 0.00 0.00 0.00 84 1012.8
20260902000459 81 163 0.0 4.0 0.00 0.00 0.00 84 1012.8
20260902000001 81 280 0.0 4.0 0.00 0.00 0.00 84 1012.9
20260901235459 82 241 0.0 6.0 0.00 0.00 0.00 84 1013.0
20260901234959 82 203 0.0 6.0 0.00 0.00 0.00 84 1012.9
20260901234500 82 296 0.0 2.0 0.00 0.00 0.00 84 1012.9
20260901233959 82 214 0.0 2.0 0.00 0.00 0.00 84 1012.8
20260901233459 82 203 0.0 3.0 0.00 0.00 0.00 84 1013.0
20260901232959 82 200 1.0 3.0 0.00 0.00 0.00 84 1013.2
20260901232500 82 276 0.0 3.0 0.00 0.00 0.00 84 1013.0
20260901231959 82 300 1.0 3.0 0.00 0.00 0.00 83 1013.0
20260901231459 82 290 0.0 3.0 0.00 0.00 0.00 82 1012.9
20260901231000 82 286 0.0 5.0 0.00 0.00 0.00 82 1013.0
20260901230459 82 220 1.0 5.0 0.00 0.00 0.00 82 1012.9
20260901230001 82 271 1.0 8.0 0.00 0.00 0.00 82 1012.8
20260901225459 83 190 1.0 8.0 0.00 0.00 0.00 82 1012.9
20260901224959 83 271 0.0 5.0 0.00 0.00 0.00 82 1012.8
20260901224459 83 280 0.0 5.0 0.00 0.00 0.00 83 1012.8
20260901223959 83 234 1.0 5.0 0.00 0.00 0.00 82 1012.9
20260901223459 83 251 0.0 4.0 0.00 0.00 0.00 83 1012.8
20260901222959 83 214 1.0 5.0 0.00 0.00 0.00 83 1012.9
20260901222459 83 201 1.0 6.0 0.00 0.00 0.00 83 1013.0
20260901221959 83 286 1.0 4.0 0.00 0.00 0.00 83 1013.1
20260901221459 84 331 1.0 8.0 0.00 0.00 0.00 83 1013.2
20260901220959 84 221 3.0 11.0 0.00 0.00 0.00 81 1013.3
20260901220459 85 223 3.0 11.0 0.00 0.00 0.00 80 1013.2
20260901220001 86 307 2.0 8.0 0.00 0.00 0.00 80 1013.2
20260901215500 86 231 3.0 8.0 0.00 0.00 0.00 80 1013.1
20260901214959 85 349 2.0 8.0 0.00 0.00 0.00 81 1013.1
20260901214459 86 311 2.0 8.0 0.00 0.00 0.00 78 1012.9
20260901213959 87 266 2.0 7.0 0.00 0.00 0.00 79 1013.0
20260901213459 87 207 3.0 8.0 0.00 0.00 0.00 78 1012.7
20260901212959 87 349 2.0 9.0 0.00 0.00 0.00 80 1012.7
20260901212459 86 230 3.0 14.0 0.00 0.00 0.00 78 1012.6
20260901212000 87 295 4.0 14.0 0.00 0.00 0.00 77 1012.7
20260901211458 87 301 2.0 10.0 0.00 0.00 0.00 78 1012.6
20260901210958 87 216 2.0 10.0 0.00 0.00 0.00 79 1012.5
20260901210458 87 303 3.0 10.0 0.00 0.00 0.00 78 1012.5
20260901205959 88 246 2.0 11.0 0.00 0.00 0.00 79 1012.5
20260901205500 87 232 2.0 11.0 0.00 0.00 0.00 80 1012.5
20260901204959 86 190 4.0 9.0 0.00 0.00 0.00 80 1012.5
20260901204459 86 242 2.0 9.0 0.00 0.00 0.00 80 1012.7